Regional Weather Roundup
Issued by NWS

Home | Current Version | Previous Version | Text Only | Print | Product List | Glossary On
Versions: 1 2 3 4 5 6 7 8 9 10 11 12 13 14 15 16 17 18 19 20 21 22 23 24 25 26 27 28 29 30 31 32 33 34 35 36 37 38 39 40 41 42 43 44 45 46 47 48 49 50
000
ASUS46 KLOX 291412
RWRCA

SOUTHERN CALIFORNIA WEATHER ROUNDUP
NATIONAL WEATHER SERVICE OXNARD CALIFORNIA
700 AM PDT TUE JUL 29 2014

NOTE: "FAIR" INDICATES FEW OR NO CLOUDS BELOW 12,000 FEET WITH NO
SIGNIFICANT WEATHER AND/OR OBSTRUCTIONS TO VISIBILITY.

  -  STATIONS PRECEEDED BY AN ASTERISK (*) ARE NOT NWS OR FAA
     STATIONS AND ARE NOT SUBJECT TO NWS AND FAA QUALITY CONTROL.

CAZ041-042-087-291500-
LA AND ORANGE COUNTY COASTAL AREAS


CITY           SKY/WX    TMP DP  RH WIND       PRES   REMARKS
L.A. DOWNTOWN  SUNNY     69  61  75 CALM      30.02R
L.A. AIRPORT   MOSUNNY   68  63  84 W5        30.03R
LONG BEACH     SUNNY     69  61  75 CALM      30.02R

CITY           SKY/WX    TMP DP  RH WIND       PRES   REMARKS
AVALON           N/A     63 N/A N/A SE1         N/A
FULLERTON        N/A     72  62  71 N3        30.01S
*GETTY CENTER    N/A     68  52  56 NE5         N/A
HAWTHORNE      SUNNY     68  64  87 CALM      30.03R
*LOS ALAMITOS  MOSUNNY   68  63  83 CALM      30.02R
*REDONDO BEACH   N/A     67  63  89 CALM      30.02R
SANTA ANA      MOSUNNY   73  61  65 S3        30.02R
STA MONICA APT SUNNY     68  63  84 CALM      30.03R
TORRANCE       MOSUNNY   70  63  78 W6        30.03
*UCLA            N/A     72  55  56 CALM      30.01R

$$

CAZ547-548-048-291500-
LA COUNTY VALLEYS AND INLAND EMPIRE


CITY           SKY/WX    TMP DP  RH WIND       PRES   REMARKS
BURBANK        SUNNY     71  49  45 CALM      30.04R
VAN NUYS       SUNNY     70  53  54 CALM      30.04R

CITY           SKY/WX    TMP DP  RH WIND       PRES   REMARKS
CORONA AIRPORT SUNNY     64  51  62 CALM      30.04S
CHINO          MOSUNNY   66  54  65 CALM      30.05R
*CLAREMONT       N/A     69  46  42 CALM        N/A
MARCH AFB      SUNNY     71  35  26 CALM      30.07R
*NORTHRIDGE      N/A     70  54  56 CALM        N/A
ONTARIO        MOSUNNY   73  45  36 CALM      30.04R
*PASADENA        N/A     73  54  49 CALM        N/A
POMONA         SUNNY     72  45  37 CALM      30.08
RIVERSIDE      MOSUNNY   71  41  33 CALM      30.04S
SAN BERNARDINO MOSUNNY   72  41  33 CALM      30.05
*WHITEMAN AP   NOT AVBL
*WOODLAND HILL   N/A     68  54  60 SE1         N/A

$$

CAZ054-055-291500-
LA AND SAN BERNARDINO COUNTY MOUNTAINS


CITY           SKY/WX    TMP DP  RH WIND       PRES   REMARKS
*ACTON           N/A     66  42  42 N6          N/A
*BIG BEAR AIRP SUNNY     50  45  81 CALM      30.39S
*BIG PINES       N/A     58  45  60 CALM        N/A
*CHILAO          N/A     71  39  30 N7          N/A
MT WILSON NWS    N/A     68  36  30 N3          N/A
SANDBERG       PTSUNNY   75  38  26 NW15      30.25R
*WARM SPRINGS    N/A     74  41  29 NW5         N/A

$$

CAZ028-029-059-060-099-291500-
ANTELOPE VALLEY AND SURROUNDING AREAS


CITY           SKY/WX    TMP DP  RH WIND       PRES   REMARKS
LANCASTER      MOSUNNY   71  45  39 SW3       30.11R
PALMDALE       SUNNY     72  44  36 CALM      30.12R

CITY           SKY/WX    TMP DP  RH WIND       PRES   REMARKS
29 PALMS       MOSUNNY   82  50  32 NW6       30.13R
BARSTOW/DAGGET SUNNY     78  54  43 NW5       30.07R
BISHOP         PTSUNNY   65  60  84 NW9       30.23S
CHINA LAKE     MOSUNNY   77  56  48 SE6       30.10R
EDWARDS AFB    PTSUNNY   71  43  36 S1        30.09R
MOJAVE         FAIR      73  41  31 NE3       30.13R
NEEDLES        SUNNY     85  71  63 SW3       29.96R HX  90
VICTORVILLE    SUNNY     73  46  38 S6        30.14S

$$

CAZ039-040-291500-
VENTURA AND SANTA BARBARA COUNTY COAST


CITY           SKY/WX    TMP DP  RH WIND       PRES   REMARKS
CAMARILLO      CLEAR     66  59  78 W5        30.02R
NWS OXNARD       N/A     64  60  86 CALM      30.03R
OXNARD AIRPORT PTCLDY    64  61  90 W3        30.03R
*POINT MUGU    PTCLDY    67  62  84 CALM      30.03R
SBA APT/GOLETA PTCLDY    66  62  87 E6        30.02R
*SANTA BARBARA   N/A     66  61  85 CALM      30.10R
*VENTURA         N/A     64  60  87 CALM      30.08R

$$

CAZ044-045-291500-
VENTURA COUNTY VALLEYS


CITY           SKY/WX    TMP DP  RH WIND       PRES   REMARKS
*SIMI VALLEY     N/A     65  56  74 CALM      29.99R
*OJAI            N/A     62  57  85 CALM      29.98S
*FILLMORE        N/A     62  58  88 SW2       29.93S

$$

CAZ053-291500-
VENTURA COUNTY MOUNTAINS


CITY           SKY/WX    TMP DP  RH WIND       PRES   REMARKS
*LOCKWOOD VLY    N/A     52  36  54 CALM        N/A
*ROSE VALLEY     N/A     54  43  66 MISG        N/A

$$

CAZ034-035-036-291500-
CENTRAL COAST AND SANTA YNEZ VALLEY


CITY           SKY/WX    TMP DP  RH WIND       PRES   REMARKS
SAN LUIS OBISP PTCLDY    61  60  97 CALM      30.03R
SANTA MARIA    FOG       63  60  90 CALM      30.05R VSB 1/4

CITY           SKY/WX    TMP DP  RH WIND       PRES   REMARKS
*CAL POLY SLO    N/A     59  59 100 CALM        N/A
*LOMPOC          N/A     61  55  82 MISG      30.05R VSB 1/4
*PISMO BEACH     N/A     61  60  97 W1        30.05R

$$

CAZ037-038-051-291500-
SAN LUIS OBISPO COUNTY INTERIOR AND CUYAMA VALLEY


CITY           SKY/WX    TMP DP  RH WIND       PRES   REMARKS
*CUYAMA          N/A     66  45  47 NE2       29.98R
PASO ROBLES    CLEAR     64  54  69 CALM      30.07R

$$

CAZ032-033-061-291500-
SOUTHERN DESERTS


CITY           SKY/WX    TMP DP  RH WIND       PRES   REMARKS
BLYTHE           N/A    N/A N/A N/A MISG      29.91R
IMPERIAL       SUNNY     86  54  33 NW5       29.88R
PALM SPRINGS   SUNNY     85  56  37 SW5       29.95R
THERMAL        SUNNY     90  49  24 NW13      29.88R

$$

ELSEWHERE ACROSS THE WESTERN UNITED STATES AND MEXICO


CITY           SKY/WX    TMP DP  RH WIND       PRES   REMARKS
DENVER, CO     PTSUNNY   67  57  70 W9        30.26R
GRAND CANYON,  SUNNY     58  52  80 CALM      30.38R
HONOLULU, HI   PTCLDY    79  66  65 NE6       30.02S
KAHULUI, MAUI  CLEAR     66  64  94 CALM      30.01F
LAKE TAHOE, CA MOSUNNY   58  43  57 S5        30.37R
LAS VEGAS, NV  MOSUNNY   80  62  54 S9        30.01R
MAMMOTH LAKES, CLOUDY    52  48  87 CALM      30.42F
MEXICO CITY, M PTSUNNY   59  50  72 E3        30.45S
PHOENIX, AZ    MOSUNNY   93  59  31 VRB3      29.95R HX  92
PORTLAND, OR   SUNNY     63  55  75 NW6       30.11R
RENO, NV       CLOUDY    72  51  47 CALM      30.22S
SALT LAKE CITY CLOUDY    68  63  84 SE3       30.19R
SAN DIEGO, CA  MOSUNNY   72  66  81 NW9       30.02S
SAN FRANCISCO, PTCLDY    61  58  90 W8        30.05R
SAN JOSE, CA   PTCLDY    63  59  87 NW5       30.04S
SEATTLE, WA    SUNNY     65  53  65 CALM      30.14R
TIJUANA, MEX   MOSUNNY   72  61  68 CALM      30.03S

$$

STATION/POSITION TIME  TEMP    WIND        PRES    VSBY  WAVE
                       AIR SEA DIR/SP/G                  HT/PER
                 (UTC) (F)     (DEG/KT/KT) (MB)    (MI)  (FT/S)
POINT ARGUELLO B NOT AVBL
WEST SANTA BARBA 1400   61 62  310/ 16/ 16 1016.4R         4/ 8
POINT CONCEPTION NOT AVBL
EAST SANTA BARBA 1400   63 64  200/  6/  6 1016.6R
SANTA MONICA BAY 1400   67 67  250/  4/  4 1016.6R         3/13



USA.gov is the U.S. government's official web portal to all federal, state and local government web resources and services.